Theta_e
352 350 349 349 349 349 347 347 345 344 343 343 342 340 342 343 341 342 340 339 340 338 339 342 341 336 336 336 337 337 339 340 341 341 341 341 341 342
349 348 346 346 345 346 343 345 345 344 343 344 343 342 342 343 342 342 341 341 341 340 340 340 341 342 340 338 336 336 337 336 336 336 337 337 338 340
344 345 345 344 344 345 344 343 343 343 344 343 343 342 343 343 342 342 341 340 337 336 338 338 338 336 340 339 335 337 336 336 337 336 336 336 338 338
341 340 337 335 336 337 338 339 341 342 342 342 343 343 342 342 341 341 340 340 336 333 336 334 333 336 336 339 337 337 337 335 335 335 335 335 334 334
332 330 329 328 328 328 329 330 331 333 335 338 339 341 340 340 339 339 339 338 338 337 336 335 334 334 335 335 335 335 333 334 335 333 334 333 334 333
325 323 323 326 327 326 326 326 327 328 331 333 335 336 335 335 334 335 335 335 334 333 333 333 333 333 332 331 332 333 333 331 330 330 333 332 333 332
321 322 324 326 325 324 324 324 324 324 325 326 326 326 327 327 328 328 327 326 327 327 326 327 328 329 329 329 328 327 327 326 327 327 328 328 328 331
321 322 324 326 326 326 326 325 325 325 324 324 324 324 324 324 324 324 325 325 326 326 326 324 324 324 324 324 323 323 323 322 322 322 324 326 327 327
315 317 319 323 324 323 324 324 318 317 319 320 317 316 315 316 319 321 323 323 324 325 326 324 323 323 323 322 322 322 322 322 322 322 322 323 323 325
307 307 309 312 316 317 317 322 320 317 316 316 315 315 316 315 315 315 315 314 319 323 324 324 322 320 323 322 323 323 319 320 319 318 319 322 323 323
314 314 313 314 316 316 317 316 319 320 319 317 316 317 317 318 317 316 317 317 316 315 313 314 314 313 313 318 316 315 318 317 315 314 314 314 315 318
316 316 316 316 316 316 316 315 316 317 316 318 318 318 319 318 318 315 316 316 317 317 316 314 314 313 313 314 315 314 315 315 317 316 314 312 311 311
316 316 316 317 316 316 316 315 315 315 315 315 314 314 315 315 314 314 314 314 314 315 317 315 315 315 314 312 311 311 312 314 315 317 316 313 312 312
317 317 316 316 316 315 315 315 314 314 313 312 313 313 313 312 313 313 314 312 314 314 315 317 315 313 312 313 312 312 312 313 312 313 316 312 311 312
317 317 316 316 315 315 315 314 313 312 311 310 311 310 310 310 310 311 310 311 312 313 313 314 314 314 313 312 313 313 313 311 311 310 310 310 312 311
317 316 316 316 315 314 314 313 312 311 311 310 309 309 308 309 311 311 310 310 310 311 311 311 311 310 311 311 311 312 310 310 310 310 309 310 310 311
316 316 315 315 315 314 313 311 311 311 310 309 308 308 308 310 310 310 309 308 307 308 309 309 309 309 309 309 309 310 310 309 309 309 310 310 310 310
316 315 315 315 314 314 311 309 310 310 309 309 308 307 307 308 308 308 306 307 307 307 308 308 308 307 307 308 308 307 307 309 309 309 309 309 308 308
316 315 315 315 314 312 311 310 310 310 309 309 308 307 306 306 306 307 306 307 306 307 308 308 307 306 306 307 308 308 308 308 308 308 309 308 307 307
316 316 315 315 313 311 311 310 310 310 309 308 308 307 303 305 306 306 306 306 306 306 306 306 305 306 306 306 306 306 306 305 305 305 305 305 305 305
316 316 315 316 313 312 311 311 308 309 309 308 307 305 302 304 304 306 306 306 306 306 306 305 305 305 305 304 304 303 302 300 300 301 301 301 301 301
316 316 315 315 314 312 312 311 309 308 308 306 305 303 301 300 302 305 305 306 306 305 305 305 305 304 304 303 302 301 302 302 302 301 299 300 300 299
316 316 315 315 314 312 312 311 308 307 306 306 304 303 301 301 300 303 304 306 305 305 305 305 304 304 304 303 302 303 303 302 302 300 300 298 297 297
Wind_Speed
10 11 12 11 10 12 13 11 8 6 4 4 9 10 7 5 5 11 13 12 11 12 13 12 12 12 13 15 15 16 17 19 21 21 21 21 23 24
8 7 8 7 8 8 8 9 7 8 6 10 13 13 9 9 10 9 13 14 15 17 13 15 16 15 14 12 14 14 15 14 15 17 17 18 19 20
3 5 5 4 4 5 6 7 10 11 12 12 12 11 11 9 7 8 13 14 15 13 12 13 14 19 19 19 17 18 17 17 17 18 18 18 18 20
3 4 4 6 5 6 6 8 8 9 10 11 9 8 8 7 7 9 13 13 13 13 11 13 13 16 19 21 20 18 18 18 20 21 20 19 18 19
9 11 13 12 14 15 14 12 11 9 6 6 6 6 6 5 6 8 9 12 12 12 12 11 12 13 14 17 21 18 18 19 22 24 24 27 23 19
11 11 13 13 14 16 16 16 16 16 15 12 10 7 8 10 9 9 8 8 9 11 12 13 15 16 16 13 14 17 15 15 17 19 17 21 28 29
12 12 14 16 16 17 19 21 20 19 18 16 16 15 14 12 14 13 11 11 7 8 10 10 12 14 17 18 19 19 18 18 17 17 14 14 15 20
13 13 13 13 14 15 18 18 19 21 21 21 21 21 20 19 17 17 15 14 13 11 10 9 9 10 11 12 14 16 15 15 17 20 20 21 22 23
12 11 11 13 13 13 14 16 23 22 21 21 21 20 20 18 16 15 14 14 14 12 11 9 11 10 13 14 12 10 12 13 15 15 14 15 20 22
16 14 14 16 18 19 16 15 18 22 23 24 22 20 22 23 20 22 21 18 11 11 12 12 14 15 14 12 9 13 16 14 13 12 13 14 15 15
26 27 23 19 17 17 17 18 11 14 15 13 14 14 15 15 15 13 16 18 17 14 15 14 18 19 14 10 13 14 13 13 12 12 13 13 13 14
21 20 19 18 16 14 15 16 16 15 13 10 11 9 9 8 11 16 16 13 13 13 11 11 15 16 13 13 15 16 14 17 15 11 11 16 18 18
16 15 13 12 9 11 9 12 13 13 13 15 15 12 9 8 10 10 12 12 12 13 12 9 11 12 11 14 18 18 19 17 16 9 8 12 15 17
10 9 10 10 8 9 10 11 11 13 15 14 12 10 11 11 11 9 8 10 6 8 9 8 9 10 14 16 17 17 16 13 16 16 9 10 13 12
7 7 7 6 7 11 13 15 16 16 16 16 13 13 13 13 13 13 14 12 9 7 7 6 9 12 16 18 21 19 16 12 16 16 15 17 17 18
8 6 4 5 8 12 15 14 15 16 17 18 14 13 13 12 14 15 16 16 13 9 7 7 8 10 11 12 12 10 17 19 18 17 16 13 12 11
6 4 3 7 11 13 16 13 12 12 15 17 18 17 16 15 16 20 22 22 17 12 10 10 9 11 12 11 10 12 15 17 20 20 18 14 9 10
4 2 6 9 13 15 15 15 10 10 14 16 19 18 16 18 20 21 17 13 15 13 12 11 14 15 15 13 14 18 17 20 19 18 13 16 17 18
3 2 6 10 13 13 13 18 8 11 14 18 19 19 20 20 17 13 14 13 15 15 14 14 15 19 21 19 16 17 19 19 18 19 19 16 17 17
4 2 7 10 16 12 14 18 9 11 16 18 19 22 25 17 15 13 13 14 15 14 15 16 19 19 18 14 13 13 17 20 23 25 27 25 24 23
6 2 8 10 15 11 12 19 15 13 16 17 21 24 20 15 14 11 12 14 14 16 17 16 14 15 16 19 24 26 25 23 23 25 26 26 26 29
8 4 9 10 13 13 13 17 15 12 14 19 22 18 17 15 13 12 11 14 14 15 17 16 16 17 21 26 24 19 25 27 26 24 25 22 24 24
11 6 9 10 11 13 12 16 13 13 14 21 19 16 17 16 14 12 11 9 13 15 17 18 16 20 23 26 22 26 31 28 31 29 26 17 19 19
Wind_Direction
287 288 293 289 286 285 294 297 296 315 338 306 331 340 323 287 277 303 304 312 302 298 290 281 276 277 273 267 259 254 254 254 249 252 252 253 257 257
283 285 293 302 295 295 290 265 286 305 315 307 323 323 300 284 291 299 294 296 301 296 281 272 266 265 261 250 251 245 248 253 256 260 262 262 259 258
335 319 329 325 316 307 301 284 283 293 298 307 319 321 296 295 291 282 290 310 317 306 295 292 282 267 262 263 262 256 259 252 248 249 250 252 260 265
328 336 27 23 353 350 335 322 315 311 312 325 332 336 331 327 300 292 299 307 313 308 311 315 297 277 264 252 250 256 263 264 259 256 252 255 264 264
82 71 65 58 55 51 48 43 31 15 356 331 352 13 8 358 325 304 309 303 306 308 315 327 328 326 300 284 280 280 282 279 277 277 270 266 271 272
63 56 60 56 57 53 49 48 44 44 48 52 61 39 18 18 5 7 348 322 313 311 310 307 307 306 311 315 307 295 287 299 305 296 286 280 269 280
66 62 62 60 60 60 57 54 52 48 47 51 54 52 43 30 25 17 5 2 359 356 356 329 306 301 302 303 311 315 313 309 309 306 303 303 296 284
71 69 71 60 55 52 50 45 45 47 48 42 42 40 35 31 24 17 13 18 16 3 355 3 358 356 347 341 336 335 325 323 315 304 296 294 294 294
71 71 72 69 61 49 46 52 62 56 53 48 43 41 36 25 23 21 16 3 354 347 340 352 5 355 343 337 331 348 352 350 344 330 331 329 292 285
72 71 71 72 69 59 52 64 60 56 53 51 51 48 41 42 41 32 27 21 11 9 3 355 349 340 324 330 328 325 337 343 346 335 328 335 321 332
78 76 76 77 73 66 65 54 61 57 42 41 45 35 29 32 19 19 16 17 22 19 21 21 12 10 8 359 341 344 354 345 356 6 10 5 334 339
91 86 81 75 67 59 56 48 46 45 29 21 25 17 12 12 11 5 2 358 4 356 358 348 348 352 9 9 5 1 354 353 330 343 18 24 22 17
87 84 72 66 63 47 47 37 31 11 1 357 356 359 3 5 353 358 2 357 348 344 335 325 337 346 359 353 348 348 351 350 353 326 341 360 5 1
84 77 79 76 59 37 28 14 1 351 346 343 340 2 14 12 8 4 347 359 359 345 337 318 321 341 334 332 340 339 341 347 351 354 327 339 332 333
85 94 102 57 27 11 3 349 347 359 16 18 12 21 14 356 342 340 345 350 336 336 341 319 306 315 316 314 321 335 345 345 333 335 333 333 322 331
115 91 62 32 6 358 359 1 2 7 11 13 8 356 353 351 2 0 352 349 347 341 350 347 336 342 342 333 336 331 335 337 341 341 317 318 325 315
127 99 30 356 358 4 7 7 3 3 9 10 7 0 353 347 348 349 348 349 351 351 349 333 327 339 339 337 346 350 346 342 340 339 336 329 329 320
148 55 2 2 360 5 9 10 5 359 2 360 358 357 352 345 343 345 355 6 10 11 14 16 12 5 3 359 4 356 355 346 339 333 322 323 326 323
182 349 346 4 2 3 10 8 3 360 357 353 357 356 348 343 348 1 2 0 355 359 9 17 4 357 354 354 356 345 341 333 332 329 318 316 310 314
218 302 353 356 0 2 8 3 356 349 350 351 349 347 343 344 347 350 358 353 346 350 356 357 357 350 351 14 20 7 347 334 327 321 317 307 303 297
216 277 342 339 1 2 358 358 350 346 346 342 340 338 337 335 347 346 341 347 349 351 352 356 360 349 341 341 341 336 337 340 332 329 326 322 322 316
231 272 332 339 357 355 343 349 354 344 344 343 341 342 335 327 324 327 334 339 344 341 338 343 344 341 344 347 336 333 336 343 343 343 337 320 324 318
227 255 320 329 342 347 338 347 354 351 343 344 349 345 341 336 332 324 329 332 347 335 331 338 331 337 345 347 341 337 336 327 337 339 349 354 345 336